Terminal Aerodrome Forecast
Issued by NWS Houston/Galveston, TX

Home | Current Version | Previous Version | Text Only | Print | Product List | Glossary On
Versions: 1 2 3 4 5 6 7 8 9 10 11 12 13 14 15 16 17 18 19 20 21 22 23 24 25 26 27 28 29 30 31 32 33 34 35 36 37 38 39 40 41 42 43 44 45 46 47 48 49 50
000
FTUS44 KHGX 251553 AAC
TAFGLS
TAF AMD
KGLS 251553Z 2516/2612 21015G22KT 4SM HZ VCSH FEW013 BKN035
      TEMPO 2516/2519 SHRA BKN029
     FM251900 26010KT P6SM FEW030 SCT250
     FM260000 VRB05KT P6SM SKC
      TEMPO 2609/2612 BKN025=

USA.gov is the U.S. government's official web portal to all federal, state and local government web resources and services.